Change the Weather History Date:

Wednesday, November 2, 2011

  Actual Average (KLSE) Record (KLSE)
Temperature  
Mean Temperature 40 °F 43 °F  
Max Temperature 48 °F 52 °F 75 °F (1938)
Min Temperature 33 °F 35 °F 11 °F (1951)
Degree Days  
Heating Degree Days 24 22  
Month to date heating degree days 43  
Since 1 July heating degree days 671  
Cooling Degree Days 0 0  
Month to date cooling degree days 0  
Year to date cooling degree days 782  
Moisture  
Dew Point 38 °F    
Average Humidity 85    
Maximum Humidity 100    
Minimum Humidity 66    
Precipitation  
Precipitation 0.01 in 0.06 in 0.93 in (1961)
Month to date precipitation 0.13  
Year to date precipitation 29.82  
Snow  
Snow 0.00 in 0.10 in 1.40 in (1920)
Month to date snowfall 0.1  
Since 1 July snowfall 0.3  
Snow Depth -    
Sea Level Pressure  
Sea Level Pressure 30.09 in    
Wind  
Wind Speed 4 mph (North)    
Max Wind Speed 10 mph    
Max Gust Speed 20 mph    
Visibility 9 miles    
Events Rain    
T = Trace of Precipitation, MM = Missing Value Source: NWS Daily Summary

Daily Weather History Graph

Daily Weather History Graph

Search for Another Location

Airport or City:

Trip Planner

Search our weather history database for the weather conditions in past years. The results will help you decide how hot, cold, wet, or windy it might be!

Date:

Astronomy

Nov. 02, 2011 Rise Set
Actual Time 7:41 AM CDT 5:51 PM CDT
Civil Twilight 7:11 AM CDT 6:22 PM CDT
Nautical Twilight 6:36 AM CDT 6:56 PM CDT
Astronomical Twilight 6:03 AM CDT 7:30 PM CDT
Moon 2:00 PM CDT (11/2) No Moon Set
Length of Visible Light 11h 11m
Length of Day
10h 10m
Waxing Crescent, 50% of the Moon is Illuminated
Nov 2
Waxing Crescent
Nov 10
Full
Nov 18
Last Quarter
Nov 25
New
Dec 2
First Quarter

Hourly Weather History & Observations

Time (CDT) Temp. Windchill Dew Point Humidity Pressure Visibility Wind Dir Wind Speed Gust Speed Precip Events Conditions
12:18 AM 48.2 °F - 39.2 °F 71% 29.96 in 10.0 mi Calm Calm - N/A   Overcast
12:38 AM 48.2 °F - 39.2 °F 71% 29.95 in 10.0 mi NNE 3.5 mph - N/A   Overcast
12:58 AM 48.2 °F - 39.2 °F 71% 29.95 in 10.0 mi NNE 3.5 mph - N/A   Overcast
1:18 AM 48.2 °F - 37.4 °F 66% 29.96 in 10.0 mi North 4.6 mph - N/A   Overcast
1:38 AM 48.2 °F - 37.4 °F 66% 29.96 in 10.0 mi North 3.5 mph - N/A   Overcast
1:58 AM 48.2 °F - 37.4 °F 66% 29.98 in 10.0 mi North 3.5 mph - N/A   Overcast
2:18 AM 48.2 °F - 37.4 °F 66% 29.98 in 10.0 mi NW 3.5 mph - N/A   Overcast
2:38 AM 48.2 °F - 37.4 °F 66% 29.98 in 10.0 mi NNW 4.6 mph - N/A   Overcast
2:58 AM 48.2 °F - 37.4 °F 66% 29.99 in 10.0 mi North 4.6 mph - N/A   Overcast
3:18 AM 48.2 °F - 37.4 °F 66% 30.00 in 10.0 mi North 5.8 mph - N/A   Overcast
3:38 AM 48.2 °F - 37.4 °F 66% 30.00 in 10.0 mi North 8.1 mph - N/A   Overcast
3:58 AM 48.2 °F - 39.2 °F 71% 30.00 in 10.0 mi North 10.4 mph - N/A   Overcast
5:58 AM 48.2 °F - 39.2 °F 71% 30.05 in 10.0 mi North 6.9 mph - N/A   Overcast
6:38 AM 48.2 °F - 39.2 °F 71% 30.06 in 10.0 mi North 5.8 mph - N/A   Overcast
7:38 AM 46.4 °F - 39.2 °F 76% 30.06 in 10.0 mi Calm Calm - N/A   Overcast
7:58 AM 46.4 °F 44.3 °F 39.2 °F 76% 30.06 in 10.0 mi North 4.6 mph - N/A   Overcast
8:18 AM 46.4 °F 42.9 °F 39.2 °F 76% 30.06 in 10.0 mi North 6.9 mph - N/A   Overcast
8:58 AM 46.4 °F - 39.2 °F 76% 30.09 in 10.0 mi Calm Calm - N/A   Overcast
9:18 AM 46.4 °F 42.9 °F 39.2 °F 76% 30.09 in 10.0 mi NE 6.9 mph - N/A   Overcast
9:38 AM 46.4 °F 44.3 °F 39.2 °F 76% 30.09 in 10.0 mi North 4.6 mph - N/A Rain Light Rain
9:58 AM 44.6 °F 41.4 °F 41.0 °F 87% 30.11 in 10.0 mi NNW 5.8 mph - N/A Rain Light Rain
10:18 AM 44.6 °F 40.2 °F 41.0 °F 87% 30.11 in 10.0 mi North 8.1 mph - N/A Rain Rain
10:58 AM 44.6 °F 42.2 °F 42.8 °F 93% 30.12 in 10.0 mi NNW 4.6 mph - N/A   Light Drizzle
11:18 AM 44.6 °F 41.4 °F 42.8 °F 93% 30.12 in 10.0 mi NNW 5.8 mph - N/A   Overcast
11:38 AM 44.6 °F 40.7 °F 42.8 °F 93% 30.12 in 10.0 mi NNW 6.9 mph - N/A   Overcast
11:58 AM 44.6 °F 39.2 °F 39.2 °F 81% 30.13 in 10.0 mi NNW 10.4 mph - N/A   Overcast
12:18 PM 44.6 °F 40.2 °F 39.2 °F 81% 30.12 in 10.0 mi North 8.1 mph 19.6 mph N/A   Overcast
12:38 PM 42.8 °F 38.0 °F 39.2 °F 87% 30.12 in 10.0 mi North 8.1 mph - N/A Rain Light Rain
12:58 PM 42.8 °F 38.0 °F 39.2 °F 87% 30.11 in 10.0 mi North 8.1 mph - N/A Rain Light Rain
1:38 PM 42.8 °F 38.6 °F 39.2 °F 87% 30.12 in 10.0 mi North 6.9 mph - 0.01 in   Light Drizzle
1:58 PM 42.8 °F 38.6 °F 39.2 °F 87% 30.12 in 10.0 mi NNE 6.9 mph - N/A Rain Light Rain
2:18 PM 42.8 °F 41.1 °F 39.2 °F 87% 30.12 in 10.0 mi NNE 3.5 mph - N/A Rain Rain
2:38 PM 42.8 °F - 39.2 °F 87% 30.12 in 10.0 mi Calm Calm - N/A Rain Rain
2:58 PM 42.8 °F - 39.2 °F 87% 30.11 in 10.0 mi Calm Calm - N/A   Drizzle
3:18 PM 42.8 °F 40.1 °F 39.2 °F 87% 30.09 in 10.0 mi ESE 4.6 mph - N/A Rain Rain
3:38 PM 42.8 °F 41.1 °F 39.2 °F 87% 30.10 in 10.0 mi North 3.5 mph - N/A   Light Drizzle
3:58 PM 42.8 °F - 39.2 °F 87% 30.10 in 10.0 mi Calm Calm - N/A   Overcast
4:18 PM 42.8 °F - 39.2 °F 87% 30.11 in 10.0 mi Calm Calm - N/A   Overcast
4:58 PM 42.8 °F - 39.2 °F 87% 30.13 in 10.0 mi Calm Calm - N/A   Overcast
5:18 PM 42.8 °F - 39.2 °F 87% 30.13 in 10.0 mi Calm Calm - N/A   Overcast
5:38 PM 41.0 °F - 39.2 °F 93% 30.14 in 10.0 mi Calm Calm - N/A   Overcast
5:58 PM 41.0 °F 39.0 °F 39.2 °F 93% 30.14 in 10.0 mi South 3.5 mph - N/A   Overcast
6:18 PM 41.0 °F - 39.2 °F 93% 30.16 in 10.0 mi Calm Calm - N/A   Overcast
6:38 PM 41.0 °F - 39.2 °F 93% 30.17 in 10.0 mi Calm Calm - N/A   Overcast
6:58 PM 41.0 °F - 39.2 °F 93% 30.16 in 10.0 mi Calm Calm - N/A   Overcast
7:18 PM 39.2 °F - 39.2 °F 100% 30.15 in 10.0 mi Calm Calm - N/A   Scattered Clouds
7:38 PM 39.2 °F - 37.4 °F 93% 30.16 in 10.0 mi Calm Calm - N/A   Clear
8:18 PM 37.4 °F - 37.4 °F 100% 30.16 in 7.0 mi Calm Calm - N/A   Scattered Clouds
8:38 PM 37.4 °F 34.9 °F 37.4 °F 100% 30.15 in 7.0 mi North 3.5 mph - N/A   Clear
8:58 PM 37.4 °F - 37.4 °F 100% 30.15 in 5.0 mi Calm Calm - N/A   Clear
9:18 PM 35.6 °F 32.8 °F 35.6 °F 100% 30.13 in 3.0 mi North 3.5 mph - N/A   Clear
9:38 PM 33.8 °F - 33.8 °F 100% 30.16 in 4.0 mi Calm Calm - N/A   Clear
9:58 PM 33.8 °F - 33.8 °F 100% 30.16 in 4.0 mi Calm Calm - N/A   Clear
10:18 PM 33.8 °F - 33.8 °F 100% 30.17 in 7.0 mi Calm Calm - N/A   Clear
10:38 PM 33.8 °F - 33.8 °F 100% 30.16 in 4.0 mi Calm Calm - N/A   Clear
10:58 PM 33.8 °F 30.8 °F 33.8 °F 100% 30.16 in 3.0 mi North 3.5 mph - N/A   Clear
11:18 PM 35.6 °F 32.8 °F 35.6 °F 100% 30.17 in 10.0 mi North 3.5 mph - N/A   Clear
11:38 PM 35.6 °F 32.8 °F 35.6 °F 100% 30.16 in 10.0 mi North 3.5 mph - N/A   Clear
11:58 PM 39.2 °F 35.0 °F 33.8 °F 81% 30.16 in 10.0 mi North 5.8 mph - N/A   Clear